User: anonymous   Login
Location: Tafessasset
(32.5899°N, 5.4824°W)
Time: 18:03:37
(UTC+00:00)
Language:

Cosmos 1484 Rocket - Orbit

View from above orbital plane
View from above orbital plane
View from above satellite
View from above satellite

Ground track
Ground track

The orbit data is extracted from the following two-line orbital elements,

1 14208U 83075B   20151.56396083 +.00000327 +00000-0 +22968-4 0  9990
2 14208 097.3957 135.7942 0039109 012.1232 348.0930 15.11117551010030
Epoch (UTC): 30 May 2020 13:32:06
Eccentricity: 0.0039109
inclination: 97.3957°
perigee height: 506 km
apogee height: 560 km
right ascension of ascending node: 135.7942°
argument of perigee: 12.1232°
revolutions per day: 15.11117551
mean anomaly at epoch: 348.0930°
orbit number at epoch: 1003

The dashed part of the orbit path shows where the satellite is in the earth's shadow,  

DLR